Location: *
(50.3440°N, 18.6237°E)
Time: 18:10:29
(UTC+00:00)

Cosmos 2333 Rocket - Pass Details

Date: 30 November 2020
Orbit: 841 x 861 km, 70.8° (Epoch: 17 January)

Event Time Altitude Azimuth Distance (km) Brightness Sun altitude
Rises 15:50:14 0° 249° (WSW) 3,402 7.7 -9.9°
Reaches altitude 10° 15:53:05 10° 261° (W) 2,468 6.1 -10.3°
Maximum altitude 15:57:48 27° 318° (NW) 1,589 3.9 -11.0°
Drops below altitude 10° 16:02:33 10° 15° (NNE) 2,471 4.3 -11.7°
Enters shadow 16:04:13 - 23° (NNE) 3,004 4.7 -12.0°
